Location: Unspecified
(41.1637°N, 24.2901°E)
Time: 14:42:24
(UTC+02:00)

ISS - Pass Details

Date: 29 June 2022
Orbit: 414 x 420 km, 51.6° (Epoch: 05 July)

Event Time Altitude Azimuth Distance (km) Brightness Sun altitude
Exits shadow 03:22:11 26° 238° (WSW) 854 -2.8 -13.8°
Maximum altitude 03:23:55 82° 325° (NW) 426 -3.8 -13.6°
Drops below altitude 10° 03:27:17 10° 53° (NE) 1,501 0.4 -13.1°
Sets 03:29:24 0° 54° (NE) 2,368 1.9 -12.9°
